Tracking 27188 objects as of 2-Apr-2023
HD Live streaming from Space Station
objects crossing your sky now

STARLINK-2611

Track STARLINK-2611 now!
10-day predictions
STARLINK-2611 is classified as:


NORAD ID: 48364
Int'l Code: 2021-038M
Perigee: 553.0 km
Apogee: 555.8 km
Inclination: 53.1 °
Period: 95.6 minutes
Semi major axis: 6925 km
RCS: Unknown
Launch date: May 4, 2021
Source: United States (US)
Launch site: AIR FORCE EASTERN TEST RANGE (AFETR)
Your satellite tracking list
Your tracking list is empty




NASA's NSSDC Master Catalog

Two Line Element Set (TLE):
1 48364U 21038M   23091.80085011 -.00016843  00000-0 -11147-2 0  9997
2 48364  53.0530 133.2051 0002003  77.9945 282.1268 15.06391879105974
Source of the keplerian elements: AFSPC